SAS7547 EKCH-LGTS

Flight info

Callsign SAS7547
Flight time 2h 45m
Altitude 37000
Route SIMEG Z491 TELMO DCT KEKOV DCT POKEN Z491 VAVUN L996 DENKO L616 DESEN DCT VALPI DCT PARAK DCT RAXAD DCT MAKED/N0372F230 P36 ALIKO
Aircraft A321/M-SDE3FGHIRWY/LB1

Departure

Time 2026-04-24 16:09
Airport Copenhagen Kastrup Airport (EKCH)

Arrival

Time 2026-04-24 18:54
Airport Thessaloniki Macedonia International Airport (LGTS)
Time Latitude Longitude Altitude Speed Heading
2026-04-24 15:42 55.62673 12.64439 21 ft 0 kts 98°
2026-04-24 15:57 55.62673 12.64437 21 ft 2 kts 98°
2026-04-24 15:58 55.62677 12.64393 21 ft 4 kts 92°
2026-04-24 15:58 55.62676 12.64354 21 ft 4 kts 75°
2026-04-24 15:58 55.62664 12.64317 27 ft 4 kts 33°
2026-04-24 15:58 55.62640 12.64296 27 ft 3 kts 25°
2026-04-24 15:59 55.62622 12.64279 25 ft 4 kts 38°
2026-04-24 15:59 55.62605 12.64246 23 ft 4 kts 72°
2026-04-24 15:59 55.62603 12.64202 26 ft 4 kts 107°
2026-04-24 15:59 55.62614 12.64159 22 ft 4 kts 123°
2026-04-24 16:00 55.62617 12.64151 24 ft 0 kts 124°
2026-04-24 16:02 55.62609 12.64174 22 ft 4 kts 123°
2026-04-24 16:02 55.62590 12.64225 24 ft 6 kts 123°
2026-04-24 16:02 55.62566 12.64291 22 ft 7 kts 123°
2026-04-24 16:02 55.62533 12.64380 22 ft 10 kts 122°
2026-04-24 16:03 55.62476 12.64475 20 ft 13 kts 165°
2026-04-24 16:03 55.62385 12.64466 19 ft 13 kts 203°
2026-04-24 16:03 55.62295 12.64408 19 ft 15 kts 193°
2026-04-24 16:03 55.62167 12.64413 16 ft 21 kts 170°
2026-04-24 16:04 55.62025 12.64461 21 ft 21 kts 169°
2026-04-24 16:04 55.61863 12.64516 23 ft 27 kts 168°
2026-04-24 16:04 55.61673 12.64546 23 ft 28 kts 197°
2026-04-24 16:04 55.61521 12.64391 23 ft 18 kts 213°
2026-04-24 16:05 55.61274 12.64101 21 ft 24 kts 213°
2026-04-24 16:05 55.61124 12.63927 20 ft 27 kts 212°
2026-04-24 16:06 55.60845 12.63615 21 ft 12 kts 205°
2026-04-24 16:06 55.60764 12.63639 22 ft 14 kts 137°
2026-04-24 16:06 55.60720 12.63723 22 ft 3 kts 130°
2026-04-24 16:07 55.60691 12.63801 22 ft 13 kts 112°
2026-04-24 16:07 55.60724 12.63941 24 ft 13 kts 50°
2026-04-24 16:07 55.60754 12.63995 24 ft 0 kts 42°
2026-04-24 16:08 55.60829 12.64117 25 ft 55 kts 43°
2026-04-24 16:08 55.62257 12.66306 231 ft 191 kts 37°
2026-04-24 16:09 55.64463 12.69724 1744 ft 228 kts 36°
2026-04-24 16:09 55.65713 12.71636 2484 ft 243 kts 34°
2026-04-24 16:09 55.67016 12.73589 3223 ft 247 kts 34°
2026-04-24 16:09 55.68343 12.75569 3990 ft 252 kts 35°
2026-04-24 16:10 55.71381 12.83160 6223 ft 285 kts 90°
2026-04-24 16:11 55.69157 12.88936 7536 ft 304 kts 153°
2026-04-24 16:11 55.67179 12.90306 8238 ft 306 kts 166°
2026-04-24 16:11 55.65101 12.91228 8949 ft 310 kts 170°
2026-04-24 16:12 55.60830 12.92262 10263 ft 309 kts 198°
2026-04-24 16:12 55.58946 12.90659 10888 ft 298 kts 223°
2026-04-24 16:12 55.55056 12.87985 12151 ft 326 kts 177°
2026-04-24 16:13 55.52898 12.89312 12771 ft 337 kts 147°
2026-04-24 16:13 55.49921 12.95753 13993 ft 344 kts 123°
2026-04-24 16:14 55.47043 13.02596 15137 ft 351 kts 129°
2026-04-24 16:14 55.45468 13.05915 15707 ft 354 kts 131°
2026-04-24 16:14 55.42152 13.12416 16852 ft 360 kts 133°
2026-04-24 16:15 55.41026 13.14570 17228 ft 362 kts 133°
2026-04-24 16:15 55.37017 13.22270 18488 ft 369 kts 133°
2026-04-24 16:16 55.33553 13.29007 19436 ft 374 kts 132°
2026-04-24 16:16 55.31800 13.32422 19908 ft 377 kts 132°
2026-04-24 16:17 55.26454 13.42787 21283 ft 387 kts 132°
2026-04-24 16:17 55.22812 13.49823 22196 ft 393 kts 132°
2026-04-24 16:18 55.19107 13.56945 23070 ft 399 kts 132°
2026-04-24 16:18 55.15348 13.64170 23907 ft 404 kts 132°
2026-04-24 16:18 55.13444 13.67814 24262 ft 406 kts 132°
2026-04-24 16:19 55.09609 13.75134 25004 ft 410 kts 132°
2026-04-24 16:19 55.07677 13.78815 25366 ft 413 kts 132°
2026-04-24 16:20 55.03777 13.86237 26099 ft 417 kts 132°
2026-04-24 16:20 54.99840 13.93717 26813 ft 421 kts 132°
2026-04-24 16:20 54.97849 13.97480 27163 ft 423 kts 133°
2026-04-24 16:21 54.93834 14.05032 27831 ft 427 kts 133°
2026-04-24 16:21 54.91812 14.08835 28162 ft 429 kts 133°
2026-04-24 16:21 54.89782 14.12653 28493 ft 431 kts 133°
2026-04-24 16:22 54.87741 14.16481 28824 ft 433 kts 133°
2026-04-24 16:22 54.83621 14.24184 29444 ft 437 kts 133°
2026-04-24 16:22 54.81548 14.28057 29767 ft 439 kts 133°
2026-04-24 16:23 54.79463 14.31947 30067 ft 441 kts 133°
2026-04-24 16:23 54.77372 14.35841 30331 ft 443 kts 133°
2026-04-24 16:23 54.75265 14.39759 30580 ft 445 kts 133°
2026-04-24 16:24 54.71025 14.47622 31111 ft 449 kts 133°
2026-04-24 16:24 54.68891 14.51574 31361 ft 451 kts 133°
2026-04-24 16:24 54.66746 14.55536 31591 ft 452 kts 133°
2026-04-24 16:24 54.64590 14.59506 31858 ft 454 kts 133°
2026-04-24 16:25 54.62421 14.63489 32117 ft 456 kts 133°
2026-04-24 16:25 54.60217 14.67435 32369 ft 458 kts 138°
2026-04-24 16:25 54.57732 14.70718 32587 ft 458 kts 150°
2026-04-24 16:26 54.51827 14.74941 33042 ft 458 kts 163°
2026-04-24 16:26 54.48812 14.76759 33289 ft 460 kts 163°
2026-04-24 16:26 54.42757 14.80429 33765 ft 463 kts 163°
2026-04-24 16:27 54.39712 14.82278 34009 ft 465 kts 163°
2026-04-24 16:27 54.36653 14.84134 34222 ft 467 kts 163°
2026-04-24 16:27 54.33587 14.85986 34424 ft 468 kts 163°
2026-04-24 16:27 54.30508 14.87842 34648 ft 470 kts 163°
2026-04-24 16:28 54.27418 14.89701 34859 ft 471 kts 163°
2026-04-24 16:28 54.24314 14.91531 34988 ft 472 kts 163°
2026-04-24 16:28 54.18083 14.95093 35017 ft 473 kts 164°
2026-04-24 16:29 54.11838 14.98612 35019 ft 473 kts 164°
2026-04-24 16:30 53.99364 15.05526 35023 ft 473 kts 164°
2026-04-24 16:30 53.93088 15.08904 35020 ft 474 kts 164°
2026-04-24 16:31 53.87825 15.11740 35023 ft 474 kts 164°
2026-04-24 16:31 53.81545 15.15142 35027 ft 474 kts 164°
2026-04-24 16:32 53.75261 15.18529 35026 ft 474 kts 164°
2026-04-24 16:32 53.68970 15.21896 35032 ft 475 kts 164°
2026-04-24 16:33 53.62672 15.25254 35024 ft 475 kts 164°
2026-04-24 16:33 53.56371 15.28608 35027 ft 475 kts 164°
2026-04-24 16:34 53.50060 15.31954 35022 ft 475 kts 164°
2026-04-24 16:34 53.43903 15.36081 35023 ft 483 kts 155°
2026-04-24 16:35 53.37707 15.40872 35019 ft 497 kts 155°
2026-04-24 16:35 53.31399 15.45719 35017 ft 507 kts 155°
2026-04-24 16:36 53.24922 15.50646 35016 ft 515 kts 155°
2026-04-24 16:36 53.18393 15.55609 35017 ft 516 kts 155°
2026-04-24 16:37 53.11855 15.60578 35014 ft 517 kts 155°
2026-04-24 16:37 53.05310 15.65534 35020 ft 517 kts 155°
2026-04-24 16:38 52.98762 15.70475 35020 ft 517 kts 155°
2026-04-24 16:38 52.92204 15.75391 35022 ft 517 kts 155°
2026-04-24 16:39 52.85646 15.80287 35022 ft 517 kts 155°
2026-04-24 16:39 52.79083 15.85140 35022 ft 517 kts 156°
2026-04-24 16:40 52.72470 15.89812 35027 ft 517 kts 156°
2026-04-24 16:40 52.65835 15.94384 35034 ft 517 kts 156°
2026-04-24 16:41 52.59195 15.98957 35027 ft 517 kts 156°
2026-04-24 16:41 52.52564 16.03561 35028 ft 517 kts 156°
2026-04-24 16:42 52.45934 16.08166 35030 ft 517 kts 156°
2026-04-24 16:42 52.39297 16.12742 35042 ft 518 kts 156°
2026-04-24 16:43 52.32657 16.17303 35048 ft 518 kts 156°
2026-04-24 16:43 52.26021 16.21854 35052 ft 517 kts 155°
2026-04-24 16:44 52.19380 16.26388 35052 ft 517 kts 155°
2026-04-24 16:44 52.12743 16.30904 35046 ft 517 kts 155°
2026-04-24 16:45 52.06114 16.35407 35042 ft 516 kts 155°
2026-04-24 16:45 51.99482 16.39890 35040 ft 516 kts 155°
2026-04-24 16:46 51.92849 16.44355 35042 ft 516 kts 155°
2026-04-24 16:46 51.86227 16.48811 35045 ft 515 kts 155°
2026-04-24 16:47 51.79600 16.53258 35047 ft 515 kts 155°
2026-04-24 16:47 51.72978 16.57662 35046 ft 515 kts 155°
2026-04-24 16:48 51.66355 16.62056 35049 ft 514 kts 155°
2026-04-24 16:48 51.59746 16.66441 35049 ft 514 kts 155°
2026-04-24 16:49 51.53128 16.70828 35052 ft 514 kts 155°
2026-04-24 16:49 51.46508 16.75194 35049 ft 514 kts 155°
2026-04-24 16:50 51.39889 16.79535 35060 ft 514 kts 155°
2026-04-24 16:50 51.33270 16.83876 35069 ft 514 kts 154°
2026-04-24 16:51 51.26655 16.88191 35076 ft 514 kts 154°
2026-04-24 16:51 51.20034 16.92491 35083 ft 513 kts 154°
2026-04-24 16:52 51.13422 16.96782 35086 ft 513 kts 154°
2026-04-24 16:52 51.06814 17.01074 35080 ft 513 kts 154°
2026-04-24 16:53 51.00203 17.05353 35078 ft 513 kts 154°
2026-04-24 16:53 50.93595 17.09595 35071 ft 512 kts 154°
2026-04-24 16:54 50.87001 17.13821 35066 ft 511 kts 154°
2026-04-24 16:54 50.80401 17.18039 35053 ft 511 kts 154°
2026-04-24 16:55 50.73817 17.22249 35057 ft 510 kts 154°
2026-04-24 16:55 50.67233 17.26437 35054 ft 510 kts 154°
2026-04-24 16:56 50.60653 17.30599 35052 ft 509 kts 154°
2026-04-24 16:56 50.54070 17.34739 35052 ft 509 kts 154°
2026-04-24 16:57 50.47499 17.38878 35051 ft 508 kts 154°
2026-04-24 16:57 50.40946 17.43013 35053 ft 508 kts 153°
2026-04-24 16:58 50.34389 17.47116 35049 ft 507 kts 154°
2026-04-24 16:58 50.27825 17.51171 35042 ft 508 kts 156°
2026-04-24 16:59 50.20935 17.53881 35044 ft 512 kts 163°
2026-04-24 17:00 50.10516 17.57561 35043 ft 511 kts 163°
2026-04-24 17:00 50.00117 17.61239 35036 ft 511 kts 163°
2026-04-24 17:01 49.89732 17.64892 35033 ft 510 kts 163°
2026-04-24 17:02 49.79371 17.68523 35029 ft 508 kts 162°
2026-04-24 17:02 49.72481 17.70941 35028 ft 508 kts 162°
2026-04-24 17:03 49.62152 17.74549 35030 ft 507 kts 162°
2026-04-24 17:04 49.55270 17.76938 35024 ft 507 kts 162°
2026-04-24 17:04 49.44960 17.80489 35024 ft 506 kts 162°
2026-04-24 17:05 49.38093 17.82852 35022 ft 505 kts 162°
2026-04-24 17:06 49.27801 17.86389 35023 ft 505 kts 162°
2026-04-24 17:06 49.17527 17.89900 35016 ft 504 kts 162°
2026-04-24 17:07 49.10678 17.92237 35022 ft 504 kts 162°
2026-04-24 17:08 48.97604 17.98885 35015 ft 490 kts 146°
2026-04-24 17:08 48.91562 18.03697 35018 ft 490 kts 146°
2026-04-24 17:09 48.79460 18.13282 35013 ft 490 kts 146°
2026-04-24 17:10 48.67357 18.22800 35013 ft 490 kts 147°
2026-04-24 17:12 48.44213 18.40872 35012 ft 488 kts 147°
2026-04-24 18:54 40.52277 22.97626 26 ft 0 kts 45°
2026-04-24 22:11 40.52274 22.97621 30 ft 3 kts 44°
2026-04-24 22:11 40.52253 22.97599 30 ft 4 kts 27°
2026-04-24 22:12 40.52229 22.97588 30 ft 4 kts 358°
2026-04-24 22:12 40.52208 22.97596 28 ft 2 kts 317°
2026-04-24 22:12 40.52204 22.97601 29 ft 0 kts 317°
2026-04-24 22:14 40.52204 22.97600 30 ft 1 kts 317°
2026-04-24 22:14 40.52214 22.97588 29 ft 3 kts 317°
2026-04-24 22:14 40.52236 22.97561 30 ft 5 kts 317°
2026-04-24 22:15 40.52269 22.97520 26 ft 8 kts 317°
2026-04-24 22:15 40.52313 22.97467 28 ft 10 kts 317°
2026-04-24 22:15 40.52365 22.97399 29 ft 12 kts 314°
2026-04-24 22:15 40.52391 22.97302 26 ft 12 kts 250°
2026-04-24 22:16 40.52370 22.97188 26 ft 14 kts 246°
2026-04-24 22:16 40.52289 22.97113 29 ft 16 kts 204°
2026-04-24 22:16 40.52215 22.97016 24 ft 15 kts 240°
2026-04-24 22:16 40.52180 22.96881 28 ft 16 kts 277°
2026-04-24 22:17 40.52213 22.96736 28 ft 17 kts 285°
2026-04-24 22:17 40.52248 22.96574 26 ft 19 kts 285°
2026-04-24 22:17 40.52280 22.96396 28 ft 21 kts 283°
2026-04-24 22:17 40.52313 22.96202 27 ft 23 kts 282°
2026-04-24 22:18 40.52348 22.95994 26 ft 24 kts 284°
2026-04-24 22:18 40.52394 22.95772 26 ft 26 kts 286°
2026-04-24 22:18 40.52443 22.95543 28 ft 27 kts 285°
2026-04-24 22:18 40.52495 22.95295 27 ft 28 kts 282°
2026-04-24 22:19 40.52536 22.95035 26 ft 30 kts 282°
2026-04-24 22:19 40.52512 22.94847 26 ft 18 kts 194°
2026-04-24 22:19 40.52394 22.94840 27 ft 15 kts 133°
2026-04-24 22:19 40.52384 22.94908 29 ft 0 kts 105°
2026-04-24 22:20 40.52382 22.94915 28 ft 12 kts 105°
2026-04-24 22:20 40.52271 22.95501 25 ft 115 kts 103°
2026-04-24 22:20 40.52014 22.96870 93 ft 186 kts 104°
2026-04-24 22:20 40.51674 22.98735 332 ft 235 kts 103°
2026-04-24 22:21 40.51247 23.01002 1072 ft 256 kts 105°
2026-04-24 22:21 40.50786 23.03253 2138 ft 258 kts 105°
2026-04-24 22:21 40.50180 23.05492 2954 ft 264 kts 122°
2026-04-24 22:21 40.48805 23.07077 3764 ft 269 kts 157°
2026-04-24 22:22 40.46957 23.07372 4583 ft 274 kts 192°
2026-04-24 22:22 40.45173 23.06480 5391 ft 277 kts 210°
2026-04-24 22:22 40.43537 23.05108 6229 ft 281 kts 216°
2026-04-24 22:22 40.41931 23.03610 7024 ft 286 kts 214°
2026-04-24 22:23 40.40081 23.02646 7769 ft 291 kts 185°
2026-04-24 22:23 40.38088 23.02976 8564 ft 291 kts 162°
2026-04-24 22:23 40.36166 23.03807 9442 ft 292 kts 158°
2026-04-24 22:23 40.34264 23.04760 10267 ft 294 kts 156°
2026-04-24 22:24 40.32358 23.05757 11021 ft 296 kts 156°